Weather History for KPNA - April, 2013

Change the Weather History Date:

Sunday, April 21, 2013

  Actual Average (KBPI) Record (KBPI)
Temperature  
Mean Temperature 36 °F 38 °F  
Max Temperature 50 °F 54 °F 75 °F (1994)
Min Temperature 21 °F 23 °F 4 °F (2008)
Degree Days  
Heating Degree Days 30 26  
Month to date heating degree days 610  
Since 1 July heating degree days 9305  
Cooling Degree Days 0 0  
Month to date cooling degree days 0  
Year to date cooling degree days 0  
Moisture  
Dew Point 23 °F    
Average Humidity 65    
Maximum Humidity 100    
Minimum Humidity 24    
Precipitation  
Precipitation 0.00 in 0.02 in 0.26 in (2010)
Month to date precipitation 0.34  
Year to date precipitation 1.44  
Sea Level Pressure  
Sea Level Pressure 30.05 in    
Wind  
Wind Speed 7 mph (West)    
Max Wind Speed 24 mph    
Max Gust Speed 31 mph    
Visibility 10 miles    
Events      
T = Trace of Precipitation, MM = Missing Value Source: NWS Daily Summary

Daily Weather History Graph

Daily Weather History Graph

Search for Another Location

Airport or City:

Trip Planner

Search our weather history database for the weather conditions in past years. The results will help you decide how hot, cold, wet, or windy it might be!

Date:

Astronomy

Apr. 21, 2013 Rise Set
Actual Time 6:27 AM MDT 8:08 PM MDT
Civil Twilight 5:57 AM MDT 8:38 PM MDT
Nautical Twilight 5:21 AM MDT 9:15 PM MDT
Astronomical Twilight 4:42 AM MDT 9:54 PM MDT
Moon 3:52 PM MDT (4/21) 3:57 AM MDT (4/21)
Length of Visible Light 14h 41m
Length of Day
13h 41m
Waxing Gibbous, 80% of the Moon is Illuminated
Apr 21
Waxing Gibbous
Apr 25
Full
May 2
Last Quarter
May 9
New
May 17
First Quarter

Hourly Weather History & Observations

Time (MDT) Temp. Windchill Dew Point Humidity Pressure Visibility Wind Dir Wind Speed Gust Speed Precip Events Conditions
12:15 AM 30.2 °F 24.3 °F 26.6 °F 86% 30.09 in 10.0 mi WNW 5.8 mph - N/A   Clear
12:35 AM 30.2 °F 24.3 °F 26.6 °F 86% 30.09 in 10.0 mi NNW 5.8 mph - N/A   Clear
3:15 AM 23.0 °F 17.0 °F 23.0 °F 100% 30.08 in 10.0 mi NW 4.6 mph - N/A   Clear
3:35 AM 23.0 °F 17.0 °F 23.0 °F 100% 30.08 in 10.0 mi NW 4.6 mph - N/A   Clear
3:55 AM 23.0 °F 17.0 °F 23.0 °F 100% 30.09 in 10.0 mi WSW 4.6 mph - N/A   Scattered Clouds
4:15 AM 23.0 °F 18.4 °F 23.0 °F 100% 30.09 in 10.0 mi West 3.5 mph - N/A   Scattered Clouds
4:35 AM 23.0 °F 17.0 °F 23.0 °F 100% 30.09 in 10.0 mi NW 4.6 mph - N/A   Clear
4:55 AM 23.0 °F 15.8 °F 23.0 °F 100% 30.09 in 10.0 mi NW 5.8 mph - N/A   Clear
5:15 AM 21.2 °F 14.9 °F 21.2 °F 100% 30.09 in 10.0 mi NW 4.6 mph - N/A   Clear
5:35 AM 21.2 °F - 21.2 °F 100% 30.09 in 10.0 mi Calm Calm - N/A   Clear
5:55 AM 23.0 °F - 23.0 °F 100% 30.09 in 10.0 mi Calm Calm - N/A   Clear
6:15 AM 21.2 °F 13.6 °F 21.2 °F 100% 30.09 in 10.0 mi West 5.8 mph - N/A   Clear
6:35 AM 21.2 °F 16.4 °F 21.2 °F 100% 30.09 in 10.0 mi West 3.5 mph - N/A   Clear
6:55 AM 21.2 °F - 21.2 °F 100% 30.09 in 10.0 mi Calm Calm - N/A   Clear
7:15 AM 24.8 °F - 24.8 °F 100% 30.09 in 10.0 mi Calm Calm - N/A   Clear
7:35 AM 26.6 °F - 26.6 °F 100% 30.10 in 10.0 mi Calm Calm - N/A   Clear
7:55 AM 28.4 °F - 26.6 °F 93% 30.10 in 10.0 mi Calm Calm - N/A   Clear
8:15 AM 30.2 °F 26.7 °F 28.4 °F 93% 30.10 in 10.0 mi WNW 3.5 mph - N/A   Clear
8:35 AM 32.0 °F - 28.4 °F 87% 30.11 in 10.0 mi Calm Calm - N/A   Clear
8:55 AM 32.0 °F - 28.4 °F 87% 30.11 in 10.0 mi Calm Calm - N/A   Clear
9:15 AM 35.6 °F - 28.4 °F 75% 30.11 in 10.0 mi Calm Calm - N/A   Clear
9:35 AM 37.4 °F - 26.6 °F 65% 30.10 in 10.0 mi Calm Calm - N/A   Clear
9:55 AM 37.4 °F 34.9 °F 26.6 °F 65% 30.09 in 10.0 mi NNE 3.5 mph - N/A   Clear
10:15 AM 39.2 °F 33.6 °F 21.2 °F 49% 30.10 in 10.0 mi West 8.1 mph - N/A   Clear
10:35 AM 41.0 °F 36.4 °F 23.0 °F 49% 30.10 in 10.0 mi WNW 6.9 mph - N/A   Scattered Clouds
10:55 AM 41.0 °F 36.4 °F 21.2 °F 45% 30.10 in 10.0 mi NW 6.9 mph - N/A   Scattered Clouds
11:15 AM 41.0 °F 34.3 °F 21.2 °F 45% 30.09 in 10.0 mi NW 11.5 mph - N/A   Scattered Clouds
11:35 AM 42.8 °F 38.6 °F 21.2 °F 42% 30.09 in 10.0 mi WNW 6.9 mph - N/A   Mostly Cloudy
11:55 AM 42.8 °F 38.6 °F 19.4 °F 39% 30.08 in 10.0 mi NW 6.9 mph 19.6 mph N/A   Scattered Clouds
12:15 PM 42.8 °F 38.6 °F 19.4 °F 39% 30.07 in 10.0 mi West 6.9 mph 16.1 mph N/A   Mostly Cloudy
12:35 PM 44.6 °F 38.4 °F 17.6 °F 34% 30.07 in 10.0 mi West 12.7 mph 25.3 mph N/A   Mostly Cloudy
12:55 PM 44.6 °F 39.2 °F 14.0 °F 29% 30.06 in 10.0 mi West 10.4 mph 19.6 mph N/A   Scattered Clouds
1:15 PM 46.4 °F 40.1 °F 12.2 °F 25% 30.05 in 10.0 mi WNW 15.0 mph 24.2 mph N/A   Mostly Cloudy
1:35 PM 48.2 °F - 12.2 °F 24% 30.04 in 10.0 mi West 21.9 mph 28.8 mph N/A   Mostly Cloudy
1:55 PM 46.4 °F 39.2 °F 12.2 °F 25% 30.04 in 10.0 mi West 18.4 mph 31.1 mph N/A   Scattered Clouds
2:15 PM 46.4 °F 40.1 °F 14.0 °F 27% 30.03 in 10.0 mi West 15.0 mph 26.5 mph N/A   Scattered Clouds
2:35 PM 48.2 °F - 15.8 °F 27% 30.03 in 10.0 mi WNW 17.3 mph 25.3 mph N/A   Mostly Cloudy
2:55 PM 46.4 °F 40.7 °F 14.0 °F 27% 30.03 in 10.0 mi West 12.7 mph 24.2 mph N/A   Mostly Cloudy
3:15 PM 50.0 °F - 14.0 °F 24% 30.02 in 10.0 mi WSW 19.6 mph 28.8 mph N/A   Mostly Cloudy
3:35 PM 48.2 °F - 14.0 °F 25% 30.01 in 10.0 mi WSW 19.6 mph 24.2 mph N/A   Mostly Cloudy
3:55 PM 46.4 °F 40.7 °F 14.0 °F 27% 30.01 in 10.0 mi WSW 12.7 mph 19.6 mph N/A   Overcast
4:15 PM 46.4 °F 40.1 °F 15.8 °F 29% 30.01 in 10.0 mi West 15.0 mph 21.9 mph N/A   Overcast
4:35 PM 46.4 °F 41.9 °F 15.8 °F 29% 30.00 in 10.0 mi WSW 9.2 mph 20.7 mph N/A   Overcast
4:55 PM 46.4 °F 39.8 °F 17.6 °F 32% 30.00 in 10.0 mi WSW 16.1 mph 24.2 mph N/A   Overcast
5:15 PM 46.4 °F 38.7 °F 17.6 °F 32% 30.00 in 10.0 mi West 20.7 mph 29.9 mph N/A   Scattered Clouds
5:35 PM 46.4 °F 40.1 °F 19.4 °F 34% 30.00 in 10.0 mi West 15.0 mph 25.3 mph N/A   Scattered Clouds
5:55 PM 46.4 °F 38.1 °F 21.2 °F 37% 30.00 in 10.0 mi West 24.2 mph 28.8 mph N/A   Scattered Clouds
6:15 PM 42.8 °F 34.8 °F 23.0 °F 46% 30.01 in 10.0 mi West 17.3 mph 27.6 mph N/A   Scattered Clouds
6:35 PM 42.8 °F 35.1 °F 23.0 °F 46% 30.01 in 10.0 mi WSW 16.1 mph 21.9 mph N/A   Clear
6:55 PM 41.0 °F 32.5 °F 26.6 °F 57% 30.01 in 10.0 mi WSW 17.3 mph 23.0 mph N/A   Clear
7:15 PM 39.2 °F 31.2 °F 26.6 °F 61% 30.01 in 10.0 mi West 13.8 mph - N/A   Clear
7:35 PM 37.4 °F 32.1 °F 28.4 °F 70% 30.01 in 10.0 mi West 6.9 mph - N/A   Scattered Clouds
7:55 PM 37.4 °F 31.4 °F 28.4 °F 70% 30.00 in 10.0 mi West 8.1 mph - N/A   Scattered Clouds
8:15 PM 37.4 °F 32.8 °F 28.4 °F 70% 30.01 in 10.0 mi West 5.8 mph - N/A   Scattered Clouds
8:35 PM 37.4 °F 34.9 °F 28.4 °F 70% 30.01 in 10.0 mi West 3.5 mph - N/A   Mostly Cloudy
8:55 PM 37.4 °F 32.8 °F 28.4 °F 70% 30.01 in 10.0 mi West 5.8 mph - N/A   Overcast
9:15 PM 35.6 °F - 28.4 °F 75% 30.00 in 10.0 mi Calm Calm - N/A   Mostly Cloudy
9:35 PM 35.6 °F - 28.4 °F 75% 30.01 in 10.0 mi Calm Calm - N/A   Scattered Clouds
9:55 PM 35.6 °F 31.7 °F 30.2 °F 81% 30.00 in 10.0 mi South 4.6 mph - N/A   Mostly Cloudy
10:15 PM 35.6 °F 30.7 °F 30.2 °F 81% 30.00 in 10.0 mi SSW 5.8 mph - N/A   Mostly Cloudy
10:35 PM 33.8 °F 29.6 °F 30.2 °F 87% 30.00 in 10.0 mi SSW 4.6 mph - N/A   Mostly Cloudy
10:55 PM 33.8 °F 30.8 °F 30.2 °F 87% 29.99 in 10.0 mi SSW 3.5 mph - N/A   Scattered Clouds
11:15 PM 33.8 °F 30.8 °F 30.2 °F 87% 29.99 in 10.0 mi SW 3.5 mph - N/A   Mostly Cloudy
11:35 PM 33.8 °F - 30.2 °F 87% 29.98 in 10.0 mi Calm Calm - N/A   Mostly Cloudy
11:55 PM 32.0 °F 28.7 °F 28.4 °F 87% 29.97 in 10.0 mi WNW 3.5 mph - N/A   Scattered Clouds